Theta_e
348 354 361 361 361 360 361 360 360 360 360 359 361 360 360 359 359 360 360 360 362 362 361 361 361 362 362 362 362 362 362 362 361 362 362 361 362 362 361 361 361 358 361
352 354 362 361 361 360 359 360 360 361 361 361 362 361 359 358 358 359 361 361 361 361 361 359 359 360 360 360 361 361 361 361 361 360 361 360 359 361 362 362 361 358 361
352 354 356 361 360 362 361 360 361 360 359 360 361 361 360 360 359 360 360 359 358 358 359 359 359 358 355 355 355 356 357 358 357 358 357 353 355 360 359 361 361 360 361
354 352 353 361 362 362 362 362 362 361 360 359 359 359 360 360 359 359 358 358 357 357 356 355 354 355 356 357 357 356 354 353 354 355 354 353 353 360 362 360 359 359 359
352 351 351 359 362 362 362 362 362 362 362 361 359 359 359 360 359 358 358 358 357 356 355 355 355 355 354 354 354 354 355 354 353 354 352 351 350 356 360 361 361 361 361
348 350 355 359 363 361 361 362 362 361 361 361 362 361 361 360 359 358 358 357 357 356 356 356 356 354 354 354 356 357 357 357 356 351 350 348 352 355 360 360 360 361 361
348 348 353 363 361 362 362 361 362 362 362 362 362 362 361 360 360 360 361 360 359 358 358 358 358 358 359 360 359 357 356 355 350 348 349 345 347 357 360 361 361 360 360
349 351 354 361 361 361 363 363 362 362 362 362 361 361 360 360 360 359 358 357 357 357 357 358 358 359 359 361 362 363 363 361 357 352 351 347 351 359 360 363 363 361 360
352 352 354 355 358 362 362 362 363 364 362 361 360 359 359 358 358 357 357 357 357 358 358 360 361 361 361 362 363 363 363 363 357 356 355 352 355 358 360 363 364 362 361
351 353 350 352 355 355 356 363 362 361 361 360 359 357 357 357 357 358 361 361 360 361 361 362 362 363 364 363 363 363 363 362 358 352 351 352 357 358 361 363 364 363 361
350 349 350 350 351 352 354 358 362 360 357 356 356 358 357 353 352 356 359 362 362 361 363 363 363 367 367 365 364 363 362 354 350 348 348 352 357 360 363 362 362 361 362
344 348 348 348 349 349 356 353 351 348 348 350 352 352 353 353 352 356 359 364 366 367 367 367 368 369 365 357 354 359 352 349 347 345 348 352 357 359 360 361 359 361 360
343 346 348 347 349 347 347 347 346 347 349 350 349 350 351 354 351 354 356 358 358 363 362 361 361 361 354 348 348 345 344 343 342 343 346 350 357 357 357 356 357 356 359
340 342 346 347 346 344 344 344 344 345 346 347 348 349 348 350 351 350 353 353 353 355 356 356 355 357 351 346 345 343 342 342 342 342 342 349 350 357 359 359 351 355 357
337 339 343 346 344 344 343 344 343 344 347 346 349 352 354 351 346 344 350 353 355 355 354 354 354 354 352 347 345 344 339 338 339 341 343 351 353 356 357 358 358 354 353
337 338 341 343 344 343 342 344 344 344 348 348 350 352 353 353 349 351 354 354 355 349 352 353 352 351 351 350 348 347 347 345 342 342 342 345 353 356 358 359 358 357 353
337 339 340 343 348 344 345 350 351 349 351 350 351 352 354 356 353 351 348 348 348 344 344 351 347 352 350 351 350 352 352 351 347 345 345 349 348 353 359 357 358 356 356
337 339 342 349 349 348 350 349 351 353 349 346 347 351 353 355 355 352 347 344 342 342 349 348 342 348 348 345 343 343 343 347 348 345 348 348 345 348 352 356 357 357 356
340 340 342 346 348 346 348 352 350 352 350 349 350 352 351 354 358 353 348 343 346 348 350 348 344 346 346 345 346 343 344 345 349 352 348 347 345 348 349 352 355 353 353
341 341 342 345 347 347 346 348 350 352 353 352 352 351 352 351 355 356 350 345 345 349 351 349 344 348 348 347 350 348 345 343 347 347 346 346 340 342 345 346 346 344 350
340 340 340 341 344 345 345 345 346 346 348 349 352 354 355 352 350 354 351 350 349 347 349 348 350 347 345 347 344 342 340 341 342 344 341 335 336 337 336 337 336 340 342
339 340 340 342 342 344 346 347 347 347 348 349 350 353 353 352 351 351 351 351 350 351 350 349 346 342 345 344 339 335 331 334 338 338 333 332 331 333 334 336 336 337 337
337 338 339 342 343 344 347 347 349 349 348 347 346 348 349 351 354 350 349 350 353 352 351 350 345 344 341 342 344 339 329 327 329 332 330 329 332 332 332 333 335 335 336
337 340 340 342 343 346 347 345 345 345 342 343 346 346 347 348 351 352 351 349 352 354 352 350 351 348 342 340 341 342 339 337 331 330 331 329 331 332 329 329 332 333 337
337 339 340 342 343 346 347 346 344 342 343 343 347 348 349 348 348 352 353 352 350 353 355 353 351 352 348 344 343 343 338 337 336 332 327 328 330 331 328 329 332 333 334
336 339 340 341 344 345 346 344 343 343 343 343 343 347 347 352 348 351 352 351 353 355 357 355 352 349 348 346 347 344 340 337 334 332 330 329 326 331 333 332 332 332 333
Wind_Speed
4 5 12 15 16 17 18 19 19 18 18 16 15 14 13 14 13 13 12 11 12 12 11 10 9 10 10 9 9 9 8 8 8 9 8 8 9 9 9 10 11 8 13
8 6 12 12 15 18 17 17 17 16 16 15 14 14 13 12 11 11 11 10 10 9 9 9 8 8 7 8 8 9 9 8 5 6 7 7 6 8 10 10 10 8 13
11 8 10 12 14 16 16 16 15 15 16 15 13 13 12 11 10 9 9 8 7 7 7 6 6 5 4 5 4 5 5 5 3 2 5 2 1 7 8 10 11 9 10
11 8 7 12 13 14 15 15 15 15 15 14 12 11 10 9 8 8 7 7 5 5 4 3 2 2 2 3 3 5 4 3 2 0 1 1 3 6 10 10 10 11 10
9 7 8 15 13 14 13 14 14 14 14 13 11 9 8 8 7 7 6 6 4 3 3 2 2 3 3 2 2 3 3 3 3 3 3 3 4 3 8 11 11 11 10
9 7 12 15 14 15 14 13 14 12 12 12 10 10 8 7 8 7 7 7 6 5 4 4 4 3 4 4 6 6 6 5 5 4 3 5 5 8 10 9 11 11 11
9 7 10 14 15 14 14 14 13 12 11 10 9 8 8 8 7 7 7 6 5 5 6 6 6 7 7 8 8 9 7 6 4 4 5 5 5 13 14 14 14 13 13
9 8 8 14 14 14 13 13 14 13 12 11 10 9 8 8 9 8 8 7 7 8 8 9 9 10 10 10 10 11 9 8 6 4 5 6 8 14 15 15 15 15 15
8 5 5 6 11 15 14 14 13 12 12 11 10 10 11 10 10 10 10 9 10 10 10 11 11 11 11 12 12 11 12 12 6 3 5 3 7 10 15 15 16 14 16
6 6 4 5 6 6 7 14 13 13 13 13 12 11 11 11 12 12 11 10 13 12 12 13 13 12 12 13 13 13 13 14 5 2 4 3 5 13 17 15 14 16 15
6 4 4 5 5 5 4 7 12 14 13 12 11 12 10 4 6 8 9 11 13 13 13 14 14 14 14 15 14 13 14 3 4 4 3 7 10 13 17 15 15 14 15
9 7 5 5 6 5 6 5 5 5 4 4 5 5 4 5 5 7 9 12 14 16 16 15 14 14 14 4 3 8 3 4 4 4 3 10 12 14 13 12 12 13 14
10 7 9 7 6 6 5 4 3 3 3 3 5 5 4 4 3 3 4 3 2 8 4 4 5 4 4 4 4 3 4 4 4 2 6 11 13 14 13 12 14 16 17
10 12 9 9 6 6 4 4 4 4 3 3 4 5 3 3 4 4 3 4 3 3 5 3 2 4 5 6 6 4 5 4 4 3 5 11 13 18 18 14 8 12 16
10 11 9 9 7 6 6 4 3 4 3 5 4 5 4 4 4 4 4 4 2 2 3 4 4 5 5 6 6 6 6 8 8 5 4 13 12 16 19 16 15 15 15
11 11 8 10 8 6 6 6 5 4 5 4 4 4 6 3 4 4 4 4 1 3 3 3 4 4 5 4 7 8 9 8 9 8 6 5 13 15 17 16 16 16 15
12 11 10 11 7 9 8 6 4 4 4 4 5 5 6 5 5 3 4 3 4 3 4 3 3 3 3 4 8 7 7 8 8 9 7 4 4 13 17 16 16 14 16
10 12 11 9 9 9 7 5 4 4 2 3 4 4 5 5 6 4 4 4 3 3 3 2 3 2 3 3 4 5 4 4 6 5 5 3 2 2 6 14 15 18 19
13 11 12 8 10 8 6 5 5 4 4 4 3 4 5 6 6 5 3 3 3 4 3 2 1 2 2 2 5 5 4 4 2 2 3 3 2 3 3 9 17 17 19
11 12 12 8 7 7 4 2 0 1 3 4 4 4 5 4 6 5 4 4 3 2 2 0 1 2 3 3 3 3 3 4 2 1 0 2 3 4 4 6 5 6 15
9 9 9 8 8 4 2 2 0 2 3 3 4 6 5 5 6 5 3 3 3 3 3 2 1 3 3 2 3 4 2 3 0 1 2 0 2 4 5 6 3 3 4
15 13 10 11 8 7 4 3 2 2 3 3 3 4 4 5 5 5 5 5 4 4 4 2 2 2 2 2 1 0 4 4 2 3 1 1 3 3 5 6 5 4 3
13 14 13 12 9 7 7 3 1 1 1 2 2 3 4 5 6 6 6 5 4 3 4 4 3 4 2 3 3 2 2 4 2 2 4 3 3 3 4 4 4 4 5
16 13 12 11 9 9 7 5 6 4 4 3 2 2 5 7 5 5 6 6 5 4 4 4 3 4 2 3 2 3 3 1 2 4 1 1 2 3 4 3 4 5 4
14 13 13 11 9 10 8 7 6 5 4 1 2 4 5 5 5 5 6 5 6 4 3 4 3 3 2 2 3 2 2 1 3 3 4 1 1 2 2 3 3 4 4
10 11 11 10 11 9 10 9 9 9 7 3 3 4 4 3 3 4 6 5 5 5 4 4 4 4 3 4 3 3 2 2 2 3 3 1 1 1 2 2 3 3 4
Wind_Direction
194 151 112 108 110 114 114 116 117 119 121 122 118 118 120 118 115 112 114 106 98 99 100 98 93 87 82 76 74 75 73 80 87 89 92 105 113 125 122 122 122 118 123
143 143 121 113 114 115 120 119 121 121 120 123 126 129 130 130 122 118 117 113 109 108 106 100 92 87 86 77 71 61 59 49 61 94 115 123 120 135 130 127 125 139 132
142 145 132 130 128 122 124 126 125 127 128 131 136 137 139 133 128 119 116 118 122 120 115 114 115 112 103 91 83 103 89 86 78 86 88 85 97 149 143 144 143 142 140
145 142 140 145 142 132 131 132 133 134 138 140 142 141 140 139 139 144 146 151 151 140 142 128 121 104 55 38 5 360 12 12 12 357 68 340 307 145 157 159 156 159 156
146 142 157 155 153 142 140 137 138 141 145 148 149 150 156 155 159 162 170 171 170 172 184 179 218 200 196 215 261 285 291 279 266 258 227 203 223 245 179 172 168 169 163
150 143 166 162 155 148 146 149 146 148 151 152 156 161 166 173 182 184 191 192 193 208 222 231 241 270 263 251 249 244 245 259 270 290 271 261 235 220 203 198 188 179 175
152 155 164 169 160 156 160 154 153 155 157 156 164 167 180 192 201 203 208 203 212 228 245 254 251 247 247 251 254 257 256 260 270 259 267 255 241 217 207 196 197 191 186
155 165 173 171 167 165 164 163 161 164 164 169 176 184 194 207 217 223 227 229 231 236 246 250 252 256 256 255 256 257 260 254 246 230 253 266 228 212 210 202 206 199 189
161 164 179 169 176 174 174 174 173 174 174 185 193 201 210 220 230 237 243 243 247 244 247 257 259 258 257 259 259 262 263 260 247 225 259 239 229 206 214 208 204 211 200
163 176 176 179 183 176 184 182 183 187 189 198 205 215 223 227 233 239 243 245 250 250 247 251 253 255 254 255 259 264 266 265 269 241 238 256 230 208 217 220 220 200 212
182 191 189 197 196 188 186 197 196 199 205 209 213 220 227 235 249 252 248 247 253 257 254 253 255 251 250 250 255 261 260 257 253 229 216 251 248 228 220 214 222 219 206
195 199 199 213 207 178 201 207 203 222 210 210 217 226 239 231 241 257 256 255 254 252 254 247 248 254 259 255 258 258 258 250 258 247 227 231 223 232 231 223 223 239 223
193 190 199 209 206 192 215 194 200 213 225 228 238 234 241 256 244 247 256 251 251 264 259 266 254 246 241 250 251 244 262 254 248 256 247 236 226 235 224 228 250 248 241
189 199 194 208 202 205 206 200 200 197 209 228 227 244 239 254 272 268 261 234 231 255 268 251 259 257 239 238 254 242 240 251 257 230 254 249 251 237 234 240 252 262 238
192 198 198 197 197 205 206 204 211 223 211 227 221 221 215 220 240 248 254 272 224 250 246 244 212 229 229 236 252 251 238 248 254 256 230 244 260 251 243 243 246 240 249
198 199 185 197 202 195 201 208 207 214 220 219 234 231 229 198 242 258 263 253 251 204 246 236 230 225 229 228 252 247 253 249 253 252 257 245 252 250 240 256 257 254 249
199 191 184 195 195 193 200 208 200 206 202 213 223 236 223 207 230 222 279 265 270 264 276 279 280 197 237 241 253 260 252 248 250 256 254 248 264 253 243 255 275 267 259
174 187 181 185 186 184 180 179 201 198 201 258 239 242 222 207 214 220 228 258 252 264 261 297 310 337 253 244 289 269 280 253 248 246 248 244 273 287 287 285 284 281 269
176 173 179 185 186 186 187 181 191 188 199 235 246 245 228 221 224 205 238 257 210 221 242 237 285 220 261 258 249 261 291 297 286 242 218 214 256 282 319 304 295 298 290
178 182 182 185 189 191 183 189 205 244 244 222 239 252 246 231 231 214 195 248 279 263 290 205 293 301 244 278 313 292 313 303 245 268 181 55 25 342 324 302 307 298 297
175 178 183 178 200 158 152 164 213 228 258 274 259 236 234 220 231 241 225 254 274 272 252 220 279 311 313 332 358 331 330 11 26 91 156 148 349 334 319 310 303 295 316
183 189 189 197 184 188 169 165 165 177 245 260 294 286 218 207 224 236 235 231 238 228 239 247 218 284 280 307 198 359 328 327 305 216 184 221 266 325 311 314 306 318 340
188 192 194 197 189 195 193 125 111 32 353 336 308 282 250 234 220 219 228 230 230 230 217 226 209 221 270 302 210 188 315 258 323 65 244 245 281 300 303 299 319 333 331
198 195 197 195 189 199 188 167 179 183 203 211 241 258 272 271 245 226 222 221 226 231 221 219 201 216 183 260 314 238 257 214 252 318 294 259 247 292 293 296 328 331 342
194 192 194 192 196 200 191 196 186 198 216 199 258 284 284 284 263 224 219 207 230 233 240 222 253 230 206 251 217 266 278 256 221 230 287 245 36 353 308 345 338 334 338
196 191 186 186 203 193 195 195 189 199 208 210 240 259 278 313 268 234 234 230 234 246 224 239 226 229 239 239 249 237 218 241 260 223 245 185 108 58 39 16 7 349 343